Location: ?
(35.3544°N, 139.4507°E)
Time: 12:15:52
(UTC+00:00)

Meteor 2-5 Rocket - Pass Details

Date: 03 August 2024
Orbit: 833 x 910 km, 81.2° (Epoch: 11 September)

Event Time Altitude Azimuth Distance (km) Brightness Sun altitude
Rises 18:27:35 0° 356° (N) 3,439 7.3 -16.1°
Reaches altitude 10° 18:30:03 10° 1° (N) 2,510 6.7 -15.7°
Maximum altitude 18:35:39 56° 79° (E) 1,032 4.5 -14.8°
Drops below altitude 10° 18:41:20 10° 158° (SSE) 2,546 6.1 -13.8°
Sets 18:43:51 0° 162° (SSE) 3,493 6.8 -13.4°
